GalileoSat-19

operational
NORAD ID: 43055 Int'l Des: 2017-079 Owner: GSAEU Country: I-EU Constellation: Galileo
MEOCIRCULAR

Über GalileoSat-19

Beschreibung wird geladen...

Live-Position

3D-Globus wird geladen...

Nächste Überflüge

Höhenverlauf

Altitude vs Time

uPlot chart will show altitude changes over time

Zweizeiliger Elementsatz

1 43055U 17079A 25296.62289122 -.00000004 00000-0 00000-0 0 9992
2 43055 55.1496 228.0166 0002240 290.2528 69.7266 1.70473846 48952
Epoch: 23. Okt. 2025 • Age: 63 hours

Aktueller Status

Höhe 23224.8 km
Geschwindigkeit 3.67 km/s
Subsatellitenpunkt -0.23°S, 81.47°W
Startdatum 12. Dez. 2017
Alter 7.8 years
Typ navigation

Technische Details

Klassifizierung Payload
Masse 715.00 kg
Trockenmasse 700.00 kg
Gesamtmasse 715.00 kg
Länge 2.70 m
Durchmesser 1.60 m
Spannweite 14.70 m
Form Box+2 pan
Hersteller OHB
Bus-Typ GalileoSat
Phasenstatus In Orbit
Besitzer/Staat GSAEU/I-EU

Große Konstellationen

Loading constellations...